This demonstration page uses our WeatherBlox Daily Observations layout. Learn more.

Left ArrowRight Arrow

Hourly Observations for January 30, 2022

Temp ( °F °C ) Dew Point ( °F °C ) Humidity (%) Winds ( mph kmh ) Pressure ( in mb ) Visibility ( mi km ) Precip ( " mm )
12:52 am 00:52 Clear 31 -0.6 21 -6.1 67 67 N 10 17 30.04 1017 10 16 0.00 0.00
1:52 am 01:52 Clear 28 -2.2 21 -6.1 75 75 N 12 19 30.06 1018 10 16 0.00 0.00
2:52 am 02:52 Clear 28 -2.2 21 -6.1 75 75 N 14 22 30.07 1018 10 16 0.00 0.00
3:52 am 03:52 Clear 25 -3.9 19 -7.2 78 78 N 10 17 30.08 1019 10 16 0.00 0.00
4:52 am 04:52 Clear 22 -5.6 18 -7.8 85 85 N 9 15 30.09 1019 10 16 0.00 0.00
5:52 am 05:52 Partly Cloudy 22 -5.6 17 -8.3 82 82 N 9 15 30.11 1020 10 16 0.00 0.00
6:52 am 06:52 Mostly Cloudy 21 -6.1 17 -8.3 85 85 NNW 10 17 30.12 1020 10 16 0.00 0.00
7:52 am 07:52 Mostly Cloudy 20 -6.7 15 -9.4 81 81 NNE 5 7 30.14 1021 10 16 0.00 0.00
8:52 am 08:52 Mostly Cloudy 23 -5 18 -7.8 81 81 N 10 17 30.16 1021 10 16 0.00 0.00
9:52 am 09:52 Mostly Cloudy 26 -3.3 18 -7.8 71 71 N 8 13 30.16 1022 10 16 0.00 0.00
10:52 am 10:52 Mostly Cloudy 27 -2.8 17 -8.3 66 66 N 7 11 30.18 1022 10 16 0.00 0.00
11:52 am 11:52 Mostly Cloudy 29 -1.7 17 -8.3 61 61 VRB 5 7 30.16 1021 10 16 0.00 0.00
12:52 pm 12:52 Mostly Cloudy 31 -0.6 17 -8.3 56 56 N 3 6 30.13 1020 10 16 0.00 0.00
1:52 pm 13:52 Mostly Cloudy 31 -0.6 17 -8.3 56 56 Calm 30.10 1019 10 16 0.00 0.00
2:52 pm 14:52 Mostly Cloudy 34 1.1 17 -8.3 50 50 ESE 6 9 30.07 1018 10 16 0.00 0.00
3:52 pm 15:52 Mostly Cloudy 36 2.2 18 -7.8 48 48 SSE 5 7 30.06 1018 10 16 0.00 0.00
4:52 pm 16:52 Mostly Cloudy 36 2.2 20 -6.7 52 52 SSE 10 17 30.04 1017 10 16 0.00 0.00
5:52 pm 17:52 Mostly Cloudy 32 0 20 -6.7 61 61 SSE 8 13 30.04 1017 10 16 0.00 0.00
6:52 pm 18:52 Mostly Cloudy 33 0.6 22 -5.6 64 64 SE 9 15 30.04 1017 10 16 0.00 0.00
7:52 pm 19:52 Cloudy 33 0.6 21 -6.1 61 61 SE 12 19 30.04 1017 10 16 0.00 0.00
8:52 pm 20:52 Cloudy 33 0.6 22 -5.6 64 64 SSE 14 22 30.01 1016 10 16 0.00 0.00
9:52 pm 21:52 Cloudy 33 0.6 22 -5.6 64 64 SSE 13 20 30.00 1016 10 16 0.00 0.00
10:52 pm 22:52 Cloudy 33 0.6 23 -5 66 66 SSE 12 19 29.98 1015 10 16 0.00 0.00
11:52 pm 23:52 Cloudy 34 1.1 23 -5 64 64 SSE 10 17 29.96 1015 10 16 0.00 0.00

Powered by AerisWeather